| time (UTC) | temp F | wind direction | speed MPH | gust MPH | rain 1hr in | rain 24hr in | rain mn in | humidity % | barometer mb |
| 20260509062027 | 71 | 0.0 | 0.0 | 0.00 | 0.16 | 0.00 | 95 | 1012.4 | |
| 20260509061025 | 71 | 0.0 | 0.0 | 0.00 | 0.16 | 0.00 | 95 | 1012.5 | |
| 20260509060024 | 71 | 175 | 1.0 | 3.0 | 0.00 | 0.16 | 0.00 | 95 | 1012.4 |
| 20260509055025 | 71 | 200 | 0.0 | 2.0 | 0.00 | 0.16 | 0.00 | 95 | 1012.7 |
| 20260509054045 | 72 | 346 | 1.0 | 2.0 | 0.00 | 0.16 | 0.00 | 94 | 1012.9 |
| 20260509053025 | 72 | 330 | 1.0 | 3.0 | 0.00 | 0.16 | 0.00 | 94 | 1013.4 |
| 20260509052025 | 72 | 187 | 0.0 | 2.0 | 0.00 | 0.16 | 0.00 | 94 | 1012.9 |
| 20260509051025 | 72 | 164 | 1.0 | 3.0 | 0.00 | 0.16 | 0.00 | 94 | 1012.5 |
| 20260509050017 | 72 | 140 | 2.0 | 6.0 | 0.00 | 0.16 | 0.00 | 93 | 1012.3 |
| 20260509045023 | 72 | 147 | 3.0 | 7.0 | 0.00 | 0.16 | 0.16 | 93 | 1012.3 |
| 20260509044023 | 72 | 125 | 3.0 | 6.0 | 0.00 | 0.16 | 0.16 | 93 | 1012.0 |
| 20260509043023 | 71 | 152 | 2.0 | 7.0 | 0.00 | 0.16 | 0.16 | 94 | 1012.0 |
| 20260509042023 | 71 | 131 | 3.0 | 6.0 | 0.00 | 0.16 | 0.16 | 94 | 1011.8 |
| 20260509041018 | 71 | 141 | 4.0 | 7.0 | 0.00 | 0.16 | 0.16 | 94 | 1011.6 |
| 20260509040018 | 71 | 155 | 4.0 | 8.0 | 0.01 | 0.16 | 0.16 | 94 | 1011.5 |
| 20260509035018 | 71 | 144 | 4.0 | 12.0 | 0.01 | 0.16 | 0.16 | 94 | 1011.5 |
| 20260509034018 | 71 | 160 | 3.0 | 8.0 | 0.01 | 0.16 | 0.16 | 94 | 1011.8 |
| 20260509033018 | 71 | 148 | 3.0 | 6.0 | 0.02 | 0.16 | 0.16 | 94 | 1012.5 |
| 20260509032119 | 70 | 146 | 3.0 | 9.0 | 0.02 | 0.16 | 0.16 | 95 | 1012.3 |
| 20260509031018 | 70 | 150 | 3.0 | 7.0 | 0.03 | 0.16 | 0.16 | 95 | 1012.5 |
| 20260509030018 | 70 | 144 | 3.0 | 7.0 | 0.04 | 0.16 | 0.16 | 95 | 1013.1 |
| 20260509025028 | 70 | 148 | 3.0 | 5.0 | 0.04 | 0.15 | 0.15 | 95 | 1013.5 |
| 20260509024028 | 70 | 132 | 1.0 | 3.0 | 0.04 | 0.15 | 0.15 | 95 | 1013.7 |
| 20260509023028 | 70 | 173 | 1.0 | 3.0 | 0.04 | 0.14 | 0.14 | 95 | 1013.8 |
| 20260509022028 | 70 | 149 | 1.0 | 3.0 | 0.03 | 0.14 | 0.14 | 94 | 1014.3 |
| 20260509021028 | 70 | 153 | 2.0 | 4.0 | 0.02 | 0.13 | 0.13 | 94 | 1014.4 |
| 20260509020028 | 70 | 105 | 1.0 | 3.0 | 0.01 | 0.11 | 0.11 | 95 | 1014.5 |
| 20260509015028 | 70 | 198 | 1.0 | 3.0 | 0.00 | 0.11 | 0.11 | 94 | 1014.6 |
| 20260509014029 | 70 | 177 | 1.0 | 4.0 | 0.00 | 0.11 | 0.11 | 94 | 1014.7 |
| 20260509013020 | 69 | 178 | 2.0 | 5.0 | 0.02 | 0.11 | 0.11 | 95 | 1014.4 |
| 20260509012029 | 69 | 168 | 3.0 | 5.0 | 0.04 | 0.11 | 0.11 | 96 | 1014.6 |
| 20260509011049 | 69 | 146 | 2.0 | 3.0 | 0.07 | 0.11 | 0.11 | 96 | 1014.4 |
| 20260509010029 | 69 | 163 | 3.0 | 5.0 | 0.09 | 0.11 | 0.11 | 96 | 1014.2 |
| 20260509005020 | 69 | 120 | 2.0 | 6.0 | 0.09 | 0.11 | 0.11 | 96 | 1014.2 |
| 20260509004030 | 68 | 202 | 2.0 | 3.0 | 0.09 | 0.11 | 0.11 | 96 | 1014.2 |
| 20260509003030 | 68 | 0 | 1.0 | 2.0 | 0.08 | 0.09 | 0.09 | 96 | 1013.5 |
| 20260509002030 | 68 | 202 | 0.0 | 1.0 | 0.06 | 0.06 | 0.06 | 95 | 1013.8 |
| 20260509001000 | 68 | 8 | 0.0 | 2.0 | 0.04 | 0.04 | 0.04 | 95 | 1013.7 |
| 20260508235531 | 68 | 339 | 1.0 | 3.0 | 0.02 | 0.02 | 0.02 | 95 | 1013.2 |
| 20260508234530 | 68 | 346 | 1.0 | 4.0 | 0.01 | 0.02 | 0.02 | 94 | 1013.2 |
| 20260508233531 | 68 | 353 | 3.0 | 5.0 | 0.01 | 0.01 | 0.01 | 94 | 1013.2 |
| 20260508232522 | 69 | 352 | 2.0 | 6.0 | 0.00 | 0.01 | 0.01 | 94 | 1013.4 |
| 20260508231522 | 69 | 351 | 3.0 | 10.0 | 0.00 | 0.00 | 0.00 | 93 | 1013.8 |
| 20260508230522 | 69 | 345 | 2.0 | 6.0 | 0.00 | 0.00 | 0.00 | 94 | 1014.0 |
| 20260508225602 | 69 | 355 | 3.0 | 7.0 | 0.00 | 0.00 | 0.00 | 94 | 1014.1 |
| 20260508224531 | 69 | 345 | 2.0 | 4.0 | 0.00 | 0.00 | 0.00 | 95 | 1014.3 |
| 20260508223517 | 69 | 353 | 2.0 | 4.0 | 0.00 | 0.00 | 0.00 | 95 | 1014.6 |
| 20260508222537 | 69 | 337 | 2.0 | 4.0 | 0.00 | 0.00 | 0.00 | 95 | 1014.9 |
| 20260508221523 | 69 | 352 | 2.0 | 5.0 | 0.00 | 0.00 | 0.00 | 95 | 1014.8 |
| 20260508220534 | 70 | 333 | 1.0 | 2.0 | 0.00 | 0.00 | 0.00 | 95 | 1014.9 |
| 20260508215532 | 70 | 343 | 1.0 | 3.0 | 0.00 | 0.00 | 0.00 | 94 | 1015.3 |
| 20260508214533 | 70 | 320 | 1.0 | 3.0 | 0.00 | 0.00 | 0.00 | 94 | 1015.4 |
| 20260508213517 | 71 | 338 | 1.0 | 2.0 | 0.00 | 0.00 | 0.00 | 94 | 1015.4 |
| 20260508212518 | 71 | 340 | 0.0 | 1.0 | 0.00 | 0.00 | 0.00 | 95 | 1014.9 |
| 20260508211517 | 71 | 315 | 0.0 | 1.0 | 0.00 | 0.00 | 0.00 | 95 | 1014.5 |
| 20260508210518 | 71 | 349 | 0.0 | 2.0 | 0.00 | 0.00 | 0.00 | 95 | 1014.3 |
| 20260508205518 | 70 | 351 | 0.0 | 2.0 | 0.00 | 0.00 | 0.00 | 95 | 1014.5 |
| 20260508204519 | 70 | 0.0 | 0.0 | 0.00 | 0.00 | 0.00 | 95 | 1014.1 | |
| 20260508203517 | 70 | 171 | 1.0 | 3.0 | 0.00 | 0.00 | 0.00 | 95 | 1014.2 |
| 20260508202517 | 70 | 211 | 1.0 | 2.0 | 0.00 | 0.00 | 0.00 | 95 | 1014.3 |
| 20260508201517 | 69 | 349 | 1.0 | 3.0 | 0.00 | 0.00 | 0.00 | 95 | 1014.3 |
| 20260508200519 | 70 | 351 | 1.0 | 2.0 | 0.00 | 0.00 | 0.00 | 95 | 1014.6 |
| 20260508195539 | 70 | 352 | 2.0 | 3.0 | 0.00 | 0.00 | 0.00 | 93 | 1014.7 |
| 20260508194519 | 71 | 346 | 2.0 | 6.0 | 0.00 | 0.01 | 0.00 | 90 | 1015.0 |
| 20260508193517 | 73 | 332 | 2.0 | 3.0 | 0.00 | 0.03 | 0.00 | 87 | 1015.1 |
| 20260508192538 | 73 | 12 | 1.0 | 3.0 | 0.00 | 0.05 | 0.00 | 87 | 1014.7 |
| 20260508191518 | 73 | 50 | 0.0 | 2.0 | 0.00 | 0.09 | 0.00 | 87 | 1014.6 |
| 20260508190518 | 73 | 125 | 1.0 | 2.0 | 0.00 | 0.16 | 0.00 | 87 | 1014.5 |
| 20260508185518 | 72 | 66 | 1.0 | 2.0 | 0.00 | 0.33 | 0.00 | 88 | 1014.4 |
| 20260508184518 | 72 | 41 | 1.0 | 2.0 | 0.00 | 0.39 | 0.00 | 89 | 1014.3 |
| 20260508183539 | 72 | 33 | 1.0 | 4.0 | 0.00 | 0.39 | 0.00 | 88 | 1014.5 |
| 20260508182519 | 72 | 68 | 1.0 | 4.0 | 0.00 | 0.39 | 0.00 | 88 | 1014.5 |
| 20260508181520 | 72 | 60 | 1.0 | 3.0 | 0.00 | 0.39 | 0.00 | 88 | 1014.3 |
| 20260508180519 | 72 | 41 | 1.0 | 2.0 | 0.00 | 0.39 | 0.00 | 88 | 1014.4 |
| 20260508175518 | 72 | 17 | 2.0 | 5.0 | 0.00 | 0.39 | 0.00 | 88 | 1014.4 |
| 20260508174518 | 71 | 63 | 2.0 | 4.0 | 0.00 | 0.39 | 0.00 | 88 | 1014.3 |
| 20260508173559 | 72 | 143 | 2.0 | 6.0 | 0.00 | 0.39 | 0.00 | 88 | 1014.4 |
| 20260508172538 | 72 | 66 | 1.0 | 4.0 | 0.00 | 0.39 | 0.00 | 87 | 1014.5 |
| 20260508171519 | 72 | 54 | 2.0 | 6.0 | 0.00 | 0.39 | 0.00 | 86 | 1014.7 |
| 20260508170519 | 73 | 134 | 3.0 | 6.0 | 0.00 | 0.39 | 0.00 | 85 | 1014.8 |
| 20260508165519 | 72 | 95 | 2.0 | 5.0 | 0.00 | 0.39 | 0.00 | 87 | 1014.8 |
| 20260508164520 | 71 | 40 | 2.0 | 4.0 | 0.00 | 0.39 | 0.00 | 87 | 1015.1 |
| 20260508163521 | 71 | 8 | 2.0 | 4.0 | 0.00 | 0.39 | 0.00 | 87 | 1015.1 |
| 20260508162521 | 71 | 23 | 1.0 | 3.0 | 0.00 | 0.43 | 0.00 | 87 | 1015.4 |
| 20260508161519 | 71 | 9 | 1.0 | 4.0 | 0.00 | 0.49 | 0.00 | 87 | 1015.4 |
| 20260508160517 | 70 | 351 | 2.0 | 6.0 | 0.00 | 0.49 | 0.00 | 87 | 1015.5 |
| 20260508155606 | 0 | 357 | 4.0 | 6.0 | 0.00 | 0.49 | 0.00 | ||
| 20260508155020 | 70 | 353 | 3.0 | 6.0 | 0.00 | 0.49 | 0.00 | 88 | 1015.5 |
| 20260508154018 | 71 | 11 | 3.0 | 7.0 | 0.00 | 0.49 | 0.00 | 87 | 1015.5 |
| 20260508153037 | 71 | 2 | 2.0 | 6.0 | 0.00 | 0.51 | 0.00 | 87 | 1015.5 |
| 20260508152038 | 71 | 15 | 3.0 | 6.0 | 0.00 | 0.59 | 0.00 | 87 | 1015.6 |
| 20260508151021 | 71 | 7 | 3.0 | 5.0 | 0.00 | 0.59 | 0.00 | 86 | 1015.6 |
| 20260508150018 | 71 | 358 | 3.0 | 7.0 | 0.00 | 0.59 | 0.00 | 86 | 1015.2 |
| 20260508145038 | 71 | 25 | 4.0 | 8.0 | 0.00 | 0.59 | 0.00 | 86 | 1015.0 |
| 20260508144018 | 70 | 22 | 3.0 | 6.0 | 0.00 | 0.59 | 0.00 | 86 | 1015.0 |
| 20260508143018 | 70 | 15 | 2.0 | 4.0 | 0.00 | 0.59 | 0.00 | 87 | 1015.1 |
| 20260508142023 | 70 | 9 | 2.0 | 5.0 | 0.00 | 0.59 | 0.00 | 87 | 1015.5 |
| 20260508141019 | 69 | 4 | 4.0 | 7.0 | 0.00 | 0.59 | 0.00 | 87 | 1015.6 |
| 20260508140023 | 69 | 347 | 3.0 | 4.0 | 0.00 | 0.59 | 0.00 | 89 | 1015.8 |
| 20260508135023 | 68 | 343 | 2.0 | 3.0 | 0.00 | 0.59 | 0.00 | 90 | 1016.0 |
| 20260508134023 | 68 | 348 | 1.0 | 3.0 | 0.00 | 0.59 | 0.00 | 90 | 1016.2 |
| 20260508133023 | 68 | 357 | 2.0 | 3.0 | 0.00 | 0.59 | 0.00 | 91 | 1016.0 |
| 20260508132024 | 68 | 342 | 1.0 | 3.0 | 0.00 | 0.59 | 0.00 | 91 | 1016.1 |
| 20260508131044 | 68 | 346 | 1.0 | 3.0 | 0.00 | 0.59 | 0.00 | 90 | 1016.1 |
| 20260508130024 | 68 | 347 | 1.0 | 3.0 | 0.00 | 0.59 | 0.00 | 90 | 1016.0 |
| 20260508125025 | 68 | 311 | 1.0 | 2.0 | 0.00 | 0.59 | 0.00 | 90 | 1015.9 |
| 20260508124024 | 68 | 13 | 1.0 | 2.0 | 0.00 | 0.59 | 0.00 | 90 | 1015.8 |
| 20260508123025 | 67 | 7 | 1.0 | 3.0 | 0.00 | 0.59 | 0.00 | 91 | 1015.8 |
| 20260508122044 | 67 | 271 | 0.0 | 1.0 | 0.00 | 0.59 | 0.00 | 91 | 1015.8 |
| 20260508121025 | 67 | 360 | 1.0 | 2.0 | 0.00 | 0.59 | 0.00 | 91 | 1015.4 |
| 20260508120025 | 67 | 346 | 2.0 | 3.0 | 0.00 | 0.59 | 0.00 | 91 | 1015.4 |
| 20260508115025 | 67 | 339 | 1.0 | 2.0 | 0.00 | 0.59 | 0.00 | 91 | 1015.3 |
| 20260508114025 | 67 | 355 | 2.0 | 3.0 | 0.00 | 0.59 | 0.00 | 92 | 1015.1 |
| 20260508113045 | 67 | 351 | 1.0 | 3.0 | 0.00 | 0.59 | 0.00 | 92 | 1014.9 |
| 20260508112026 | 67 | 344 | 2.0 | 4.0 | 0.00 | 0.59 | 0.00 | 92 | 1015.0 |
| 20260508111026 | 67 | 343 | 1.0 | 3.0 | 0.00 | 0.59 | 0.00 | 92 | 1015.0 |
| 20260508110047 | 67 | 345 | 2.0 | 4.0 | 0.00 | 0.59 | 0.00 | 92 | 1014.8 |
| 20260508105026 | 67 | 333 | 1.0 | 2.0 | 0.00 | 0.59 | 0.00 | 92 | 1014.9 |
| 20260508104026 | 67 | 350 | 1.0 | 3.0 | 0.00 | 0.59 | 0.00 | 92 | 1014.6 |
| 20260508103027 | 67 | 337 | 1.0 | 2.0 | 0.00 | 0.59 | 0.00 | 91 | 1014.5 |
| 20260508102026 | 67 | 352 | 1.0 | 2.0 | 0.00 | 0.59 | 0.00 | 91 | 1014.0 |
| 20260508101027 | 67 | 348 | 1.0 | 2.0 | 0.00 | 0.59 | 0.00 | 92 | 1014.0 |
| 20260508095547 | 67 | 356 | 1.0 | 2.0 | 0.00 | 0.59 | 0.00 | 92 | 1013.9 |
| 20260508094527 | 67 | 348 | 2.0 | 3.0 | 0.00 | 0.59 | 0.00 | 92 | 1014.1 |
| 20260508093527 | 67 | 356 | 2.0 | 4.0 | 0.00 | 0.59 | 0.00 | 92 | 1014.1 |
| 20260508092528 | 67 | 349 | 1.0 | 4.0 | 0.00 | 0.59 | 0.00 | 91 | 1014.2 |
| 20260508091528 | 67 | 358 | 2.0 | 4.0 | 0.00 | 0.59 | 0.00 | 91 | 1013.9 |
| 20260508090608 | 67 | 354 | 2.0 | 3.0 | 0.00 | 0.59 | 0.00 | 92 | 1013.9 |
| 20260508085528 | 67 | 3 | 2.0 | 4.0 | 0.00 | 0.59 | 0.00 | 93 | 1013.8 |
| 20260508084528 | 67 | 355 | 2.0 | 4.0 | 0.00 | 0.59 | 0.00 | 94 | 1013.9 |
| 20260508083529 | 67 | 347 | 1.0 | 2.0 | 0.00 | 0.59 | 0.00 | 94 | 1013.9 |
| 20260508082528 | 67 | 332 | 1.0 | 2.0 | 0.00 | 0.59 | 0.00 | 94 | 1013.8 |
| 20260508081549 | 67 | 354 | 1.0 | 2.0 | 0.00 | 0.59 | 0.00 | 94 | 1013.6 |
| 20260508080529 | 67 | 357 | 1.0 | 3.0 | 0.00 | 0.59 | 0.00 | 94 | 1014.0 |
| 20260508075529 | 67 | 334 | 1.0 | 2.0 | 0.00 | 0.59 | 0.00 | 94 | 1013.7 |
| 20260508074550 | 67 | 355 | 2.0 | 3.0 | 0.00 | 0.59 | 0.00 | 93 | 1013.7 |
| 20260508073529 | 67 | 337 | 1.0 | 2.0 | 0.00 | 0.59 | 0.00 | 93 | 1013.9 |
| 20260508072516 | 68 | 2 | 2.0 | 3.0 | 0.00 | 0.59 | 0.00 | 93 | 1014.1 |
| 20260508071529 | 68 | 1 | 2.0 | 3.0 | 0.00 | 0.59 | 0.00 | 93 | 1014.2 |
| 20260508070530 | 68 | 339 | 1.0 | 3.0 | 0.00 | 0.59 | 0.00 | 93 | 1014.4 |
| 20260508065520 | 68 | 2 | 2.0 | 5.0 | 0.00 | 0.59 | 0.00 | 93 | 1014.3 |
| 20260508064550 | 68 | 336 | 1.0 | 3.0 | 0.00 | 0.59 | 0.00 | 93 | 1014.6 |
| 20260508063530 | 68 | 342 | 2.0 | 3.0 | 0.00 | 0.59 | 0.00 | 93 | 1014.1 |